Other Surface Observations
Issued by NWS

Home | Current Version | Previous Version | Text Only | Print | Product List | Glossary On
Versions: 1 2 3 4 5 6 7 8 9 10 11 12 13 14 15 16 17 18 19 20 21 22 23 24 25 26 27 28 29 30 31 32 33 34 35 36 37 38 39 40 41 42 43 44 45 46 47 48 49 50
000
SXUS52 KTAE 060606
OSOTAE
OSOTAE
North Florida/South Alabama/Southwest Georgia Weather Roundup
National Weather Service Tallahassee Florida
200 AM EDT FRI MAY 06 2016

Note: "fair" indicates few or no clouds below 12,000 feet with no
significant weather and/or obstructions to visibility.

!FLZ017-115-028-034-025-060700
...North Florida...

CITY           SKY/WX    TMP DP  RH WIND       PRES   REMARKS
TALLAHASSEE    CLEAR     54  43  66 CALM      29.87S
APALACHICOLA   PTCLDY    57  44  62 NW5       29.88F
PERRY          PTCLDY    52  46  79 CALM      29.86F
CROSS CITY       N/A     50  43  77 CALM      29.85F
JACKSONVILLE   PTCLDY    54  42  64 NW5       29.83S
$$

!FLZ112-006-005-002-011-060700
...Florida Panhandle...

CITY           SKY/WX    TMP DP  RH WIND       PRES   REMARKS
MARIANNA       PTCLDY    55  46  71 NW5       29.89R
BONIFAY        NOT AVBL
PANAMA CITY NW FAIR      53  46  77 NW6       29.89S
TYNDALL AFB    CLEAR     64  45  50 NW8       29.89S
TYND DRONE APT FAIR      65  45  48 NW6       29.89S
DE FUNIAK SPR  FAIR      55  42  61 NW5       29.92R
EGLIN AFB      CLEAR     56  42  61 NW7       29.91S
DESTIN         CLEAR     68  46  45 NW6       29.91S
HURLBURT       CLEAR     57  44  63 VRB5      29.91S
CRESTVIEW      PTCLDY    49  43  80 N5        29.93S
PENSACOLA      CLEAR     60  44  55 N8        29.92S
$$

!ALZ063-066-060700
...South Alabama...

CITY           SKY/WX    TMP DP  RH WIND       PRES   REMARKS
DOTHAN         CLEAR     56  40  55 N10       29.94R
OZARK CAIRNS   CLEAR     57  43  58 N9        29.91R
FT RUCKER HELI CLEAR     55  42  61 N8        29.91R
RUCKER HELI 3  FAIR      55  43  63 N7        29.93R
RUCKER HELI 2  NOT AVBL
FLORALA APT    PTCLDY    52  45  77 NW3       29.94R
ANDALUSIA      CLEAR     58  43  57 NW5       29.92R
TROY           CLEAR     54  43  66 N8        29.94R
EUFALA         FAIR      55  40  56 VRB5      29.91R
MOBILE         CLEAR     57  46  66 NW6       29.97R
$$

!GAZ120>161-060700
...Southwest and South Central Georgia...

CITY           SKY/WX    TMP DP  RH WIND       PRES   REMARKS
THOMASVILLE    FAIR      54  46  76 N3        29.89S
BAINBRIDGE     CLEAR     59  45  58 N6        29.90R
MOODY AFB      CLEAR     51  45  79 N2        29.86S
VALDOSTA       CLEAR     51  45  79 N3        29.87S
MOULTRIE       CLEAR     55  45  67 CALM      29.90R
BLAKELY        CLEAR     55  46  71 CALM      29.91R
ALBANY         CLEAR     56  39  53 N10G17    29.92R
TIFTON         NOT AVBL
FITZGERALD     FAIR      53  45  72 NW5       29.90R
CORDELE        FAIR      55  41  58 NW6       29.89S
AMERICUS       FAIR      52  36  54 N8        29.91S
HOMERVILLE     FAIR      50  46  87 NW5       29.87S
$$

!GMZ750-755-770-775-060700
...Coastal and Buoy Obs...

STATION/POSITION TIME  TEMP    WIND        PRES    VSBY  WAVE
                       AIR SEA DIR/SP/G                  HT/PER
                 (UTC) (F)     (DEG/KT/KT) (MB)    (MI)  (FT/S)
KEATON BEACH     0600   64     350/  3/  4 1010.5F
CEDAR KEY        0500   63     360/  6/  9 1011.4R
C TOWER          0600   69     330/ 16/ 18 1012.0F
APALACHICOLA BUO 0550   72 73  360/ 17/ 21 1011.0R         5/ 6
PANAMA CITY BUOY 0450   73 78   10/ 17/ 23 1012.3          5/ 6
MOBILE BUOY      0500   73 74  360/ 17/ 21 1013.5R
ORANGE BCH AL BU 0550   71 74  340/ 21/ 25 1012.4F         2/ 3
$$




USA.gov is the U.S. government's official web portal to all federal, state and local government web resources and services.